Погода в Видном

Россия / Хабаровский край     47°14′26″N   134°09′57″E
В апреле 2022 года жителям России запретили посещать сайт meteo.paraplan.net по решению Генеральной прокуратуры. Аудитория сайта уменьшилась в 10 раз. Владельцы сайта не видят смысла в поддержке погодного сервера в таких условиях. Сайт будет закрыт в октябре.
темп.,
°C
ветер,
м/с
пор.,
м/с
влажн.,
%
обл.,
%
осадки,
мм/ч
давл.,
гПа
погр.,
м
4 октября, вт
вт401:00+3сз4898100 3.0 1015500
04:00+3зсз4884100 3.7 1016854
07:00−1з412803 0.0 1016460
10:00+2зсз711580 0.0 10161511
13:00+4зсз8104080 0.0 10151974
16:00+5зсз61042100 0.0 10142208
19:00+2зсз5115436 0.0 1016541
22:00+1зсз4126168 0.0 1016440
5 октября, ср
ср501:00−1з39673 0.0 1017299
04:00−2з39690 0.0 1018315
07:00−2зюз38670 0.0 1019297
10:00+3з58450 0.0 1020691
13:00+7з6935100 0.0 10192447
16:00+7з61037100 0.0 10182537
19:00+3зюз3656100 0.0 1018135
22:00+2зюз2762100 0.0 1019178
6 октября, чт
чт601:00−1зюз387311 0.0 1020165
04:00−1зюз39715 0.0 1020261
07:00−1юз39724 0.0 1021261
10:00+4з510460 0.0 1022942
13:00+8зсз610355 0.0 10212046
16:00+8з693614 0.0 10212332
19:00+3ююз22595 0.0 102219
22:00+1ю22645 0.0 102225
7 октября, пт
пт701:000ю22683 0.0 102229
04:00−1ююв22690 0.0 102329
07:00−1ююв22690 0.0 102436
10:00+5ююз34480 0.0 1024386
13:00+10з47350 0.0 10231810
16:00+10з46365 0.0 10222039
19:00+4зюз22565 0.0 102411
22:00+2ю22614 0.0 102514
8 октября, сб
сб801:00+1ююв22650 0.0 102619
04:000ююв22670 0.0 102622
07:000ююв22695 0.0 102721
10:00+6ююз24505 0.0 1027330
13:00+11юз33415 0.0 1027926
16:00+12юз1237100 0.0 10251420
19:00+7ююв2260100 0.0 102617
22:00+5юв22665 0.0 102716